Satellite: METEOR-M Catalog number: 35865 Epoch time: 11069.20919084 Element set: 172 Inclination: 098.7205 deg RA of node: 125.5662 deg Eccentricity: 0.0002222 Arg of perigee: 337.6153 deg Mean anomaly: 022.4895 deg Mean motion: 14.21834844 rev/day Decay rate: 1.76e-06 rev/day^2 Epoch rev: 7652 Checksum: 294
Satellite: RS-38 Catalog number: 35869 Epoch time: 11069.15080330 Element set: 181 Inclination: 098.7179 deg RA of node: 125.5495 deg Eccentricity: 0.0004260 Arg of perigee: 327.8404 deg Mean anomaly: 032.2480 deg Mean motion: 14.22001758 rev/day Decay rate: 1.77e-06 rev/day^2 Epoch rev: 7652 Checksum: 295
/EX